Location: Newark
(48.1500°N, 13.1167°E)
Time: 13:31:11
(UTC+00:00)

N. Korean satellite - Pass Details

Date: 01 October 2021
Orbit: 450 x 495 km, 97.3° (Epoch: 23 October)

Event Time Altitude Azimuth Distance (km) Brightness Sun altitude
Rises 03:49:57 0° 22° (NNE) 2,548 10.7 -13.6°
Reaches altitude 10° 03:52:13 10° 35° (NE) 1,671 9.9 -13.2°
Maximum altitude 03:55:22 28° 96° (E) 950 8.9 -12.7°
Drops below altitude 10° 03:58:30 10° 156° (SSE) 1,677 9.5 -12.2°
Sets 04:00:47 0° 169° (SSE) 2,559 10.3 -11.8°
